GFSNE_sfc_30mbdewp_021.txt.gz
Dewpoint
34 33 32 30 30 30 28 28 29 27 23 21 22 24 32 36 33 30 31 31 33 34 33 30 32 34 36 38 39 45 46 44 44 45 46 46 46 47
38 37 37 35 35 35 32 31 29 26 24 23 22 22 22 19 20 22 26 26 33 36 32 30 30 32 36 38 39 40 43 44 44 44 43 43 44 43
32 33 32 28 26 24 21 19 20 22 22 21 19 20 22 23 21 24 24 26 26 32 33 31 30 31 35 36 36 36 36 37 38 41 44 43 42 41
28 27 27 23 21 19 18 18 19 19 19 19 17 19 20 21 23 24 22 21 24 22 29 30 31 32 34 33 33 33 33 33 33 35 37 42 42 41
20 20 20 20 20 20 19 19 18 16 17 18 17 17 18 19 20 21 23 24 22 23 28 30 31 34 34 33 32 32 33 32 32 32 33 35 37 40
19 19 20 20 20 20 19 19 18 17 17 17 18 18 17 18 19 19 20 21 22 19 19 20 24 28 29 30 31 32 32 33 31 32 33 32 34 37
17 17 18 19 22 20 18 17 18 18 19 18 17 17 17 16 17 19 21 22 23 24 25 26 26 27 27 28 26 29 33 34 34 33 34 33 33 36
17 17 18 19 19 22 24 24 23 19 19 20 20 20 20 20 21 22 23 24 25 26 23 25 26 26 26 26 29 30 31 30 32 32 31 33 35 36
19 19 18 16 17 17 19 23 24 26 26 22 21 21 21 21 22 24 24 23 24 24 24 24 28 29 30 26 28 29 30 32 34 34 35 37 37 37
19 19 18 17 19 22 22 23 23 23 24 26 26 24 23 22 22 22 23 24 25 25 26 26 27 27 30 31 29 29 30 31 33 35 36 35 35 35
18 21 21 21 22 24 25 25 23 23 23 25 26 27 27 27 27 25 25 27 25 23 23 24 26 27 28 29 31 29 29 30 30 33 33 33 33 35
20 19 21 22 24 26 26 26 25 21 21 24 23 22 25 27 27 28 25 23 23 23 23 22 23 24 25 30 30 31 32 31 31 32 32 31 33 34
21 22 23 27 26 25 25 24 23 25 22 22 22 24 25 25 24 25 29 27 26 25 24 24 29 25 25 25 26 31 31 34 34 34 32 31 32 33
21 22 27 24 23 23 24 24 23 22 23 25 27 26 28 27 26 27 28 30 31 30 29 30 29 26 24 27 23 26 27 31 33 31 34 34 32 34
24 24 24 26 24 24 27 23 24 25 26 24 24 25 27 27 26 27 28 29 32 34 33 33 31 31 29 25 25 25 30 32 35 31 33 33 34 33
22 22 26 25 25 26 26 25 25 25 23 24 25 25 27 28 29 30 30 26 30 27 31 33 31 29 27 26 25 25 27 27 31 34 34 34 35 36
21 24 22 21 21 22 23 23 23 21 23 22 23 25 25 25 27 29 26 25 25 26 26 30 31 31 29 28 26 27 27 28 28 30 32 30 33 35
21 19 19 19 19 20 20 20 20 20 19 22 22 24 23 24 25 29 28 26 24 23 27 28 30 29 28 28 30 27 27 29 29 29 33 28 28 31
18 18 17 17 18 18 17 18 18 20 20 20 20 21 22 22 25 26 26 28 29 29 30 31 31 28 25 23 28 27 28 28 31 29 31 32 26 28
16 16 16 17 14 13 14 15 17 19 20 20 20 21 22 23 24 23 24 24 24 26 27 27 28 26 25 25 26 24 25 25 26 27 29 32 29 26
14 15 15 12 12 13 15 16 17 18 18 19 20 21 21 22 22 22 23 23 23 23 23 22 22 24 25 27 27 25 25 24 25 26 28 30 26 26
10 9 10 11 13 13 14 15 15 16 15 16 19 20 21 21 22 21 22 22 22 23 22 22 22 21 23 22 25 22 24 24 24 25 25 25 24 23
9 10 10 11 11 11 11 13 13 14 14 14 16 17 20 20 21 21 21 21 20 21 21 21 21 20 21 20 22 22 20 22 21 26 23 25 25 26

GFSNE_sfc_30mbdewp_024.txt.gz
Dewpoint
39 38 38 37 36 35 32 30 30 27 25 25 27 27 30 40 39 40 40 37 34 34 34 36 34 33 35 35 35 37 39 47 46 46 47 47 48 47
36 37 37 37 38 38 36 34 32 29 26 26 26 26 27 26 25 30 32 30 34 33 34 35 33 32 32 32 35 37 38 40 45 45 45 44 44 45
33 32 32 32 31 31 30 28 29 32 29 28 29 27 25 27 26 25 25 25 29 32 32 33 31 31 31 32 34 35 37 37 37 38 39 42 43 43
27 27 26 25 24 25 24 23 23 23 21 20 21 21 21 22 23 23 23 23 23 25 32 32 32 33 32 31 33 34 34 33 33 34 34 35 36 41
22 22 23 23 23 23 24 23 23 22 22 21 20 20 20 21 20 22 22 22 25 24 24 31 33 35 35 32 31 33 32 31 30 30 31 32 33 34
21 22 22 22 22 22 22 23 21 21 19 19 19 19 20 20 20 19 20 23 23 22 21 23 30 33 32 32 33 33 32 33 33 32 32 32 31 32
20 20 21 22 23 23 18 19 20 19 20 20 20 20 21 22 22 23 22 24 25 27 27 25 24 26 29 34 33 32 33 33 33 33 33 33 33 32
20 20 22 23 21 22 22 24 22 20 19 19 19 19 20 21 22 23 24 24 23 28 27 26 28 28 29 29 29 29 28 29 30 35 34 34 34 33
21 21 21 20 22 21 22 23 27 26 25 24 23 23 21 21 21 22 22 24 25 26 26 25 26 26 29 30 30 29 31 29 29 30 32 34 34 34
21 19 19 21 22 23 23 24 25 25 25 25 28 27 26 26 26 29 29 29 27 25 26 24 26 27 28 29 31 31 30 30 31 31 32 32 34 35
20 21 22 20 21 22 25 24 26 24 24 25 28 27 27 28 28 27 25 24 22 21 26 27 27 26 27 29 29 31 31 30 30 31 31 34 34 33
21 21 22 22 27 26 26 25 24 24 22 24 25 23 23 23 25 28 28 24 23 21 22 22 23 25 25 27 29 30 30 31 31 31 31 32 33 32
21 20 21 25 27 26 24 24 23 25 25 23 23 22 24 25 26 28 27 27 26 24 23 24 28 28 27 26 26 29 31 31 32 33 33 32 33 32
21 22 25 21 26 24 24 25 26 25 23 23 24 26 27 29 31 31 31 31 32 30 30 32 30 29 26 25 25 27 27 30 31 32 33 33 34 33
23 23 23 25 25 25 26 27 27 25 25 24 24 26 27 27 28 28 28 31 32 32 32 33 31 30 29 27 27 27 26 29 33 34 32 30 32 33
21 21 23 23 24 25 25 26 26 26 25 25 24 26 28 29 27 28 29 29 26 28 31 32 32 31 29 29 26 25 25 26 30 33 32 32 33 35
20 23 21 20 21 21 22 22 24 23 22 23 24 24 24 24 25 26 29 27 25 25 26 30 32 31 29 28 26 26 26 27 29 30 32 31 31 32
20 19 18 18 18 20 20 20 20 21 21 22 22 22 23 23 24 26 28 29 27 26 28 30 30 29 28 28 29 27 26 27 29 30 32 30 29 32
18 18 17 17 18 15 16 17 17 21 20 20 23 21 22 23 25 24 25 25 25 26 29 30 29 28 25 22 25 28 27 28 28 27 28 30 30 28
17 17 16 17 15 15 15 17 18 20 19 19 20 22 23 23 24 23 24 24 24 26 25 23 22 22 23 24 25 23 26 25 26 26 28 30 27 29
13 15 15 14 15 15 15 16 17 17 17 17 18 20 22 23 22 22 23 23 24 24 24 22 22 23 23 25 26 23 23 24 25 24 25 25 27 27
12 12 13 14 14 14 14 15 15 15 15 15 15 17 20 22 22 23 22 22 22 22 24 23 24 22 23 22 24 22 24 24 24 25 25 24 23 21
12 12 14 13 13 13 13 13 13 13 12 13 14 15 17 18 20 22 20 21 22 17 17 19 23 22 21 20 22 22 19 22 22 23 22 25 26 26

GFSNE_sfc_30mbdewp_027.txt.gz
Dewpoint
37 37 38 38 39 38 37 36 33 29 27 26 26 28 27 31 38 38 39 41 40 42 41 40 38 36 35 34 34 34 33 35 37 47 48 47 48 49
35 34 34 35 34 35 36 37 36 33 29 29 29 29 29 28 28 34 38 35 34 38 39 40 38 36 34 34 33 33 32 33 35 39 45 46 45 45
32 32 30 31 31 30 32 32 30 28 24 25 29 29 26 24 24 25 28 30 31 32 32 33 33 33 33 32 33 34 34 35 37 37 37 38 40 43
22 22 22 23 24 25 25 24 24 25 23 21 23 22 21 21 23 22 21 22 24 26 34 32 32 32 32 32 32 34 35 35 35 35 34 34 32 33
21 21 21 21 21 22 22 23 24 23 22 20 20 21 21 21 21 21 21 21 23 23 22 25 31 32 33 33 33 33 32 33 32 31 31 31 31 30
23 22 22 21 22 23 24 22 20 20 20 18 19 21 22 23 24 24 24 25 25 27 27 27 28 31 35 36 37 35 33 33 33 32 32 31 30 31
23 22 21 22 23 25 24 25 23 21 20 19 20 20 19 19 19 21 23 24 24 26 26 27 26 26 26 29 33 35 35 34 35 35 34 34 32 32
21 20 22 22 22 22 24 23 23 24 25 22 20 20 20 20 21 22 22 21 20 26 27 25 27 26 28 30 30 30 31 32 30 30 32 34 35 35
20 21 19 17 21 22 23 24 24 25 26 25 24 23 23 23 22 23 22 22 22 24 25 25 26 25 27 28 29 30 31 31 31 30 29 29 31 34
22 21 20 21 22 22 22 24 25 25 26 26 25 26 26 26 27 27 27 28 29 29 27 25 25 25 26 27 29 31 32 33 32 31 30 29 28 30
24 22 21 21 22 23 25 24 24 25 26 26 26 27 28 28 29 29 27 26 22 22 25 24 23 25 25 26 28 29 30 31 32 32 32 32 32 31
22 21 21 20 25 26 26 24 22 21 22 24 24 24 23 23 24 25 24 24 23 23 23 22 21 23 22 24 27 28 29 31 32 32 32 32 33 32
20 19 20 22 22 24 25 25 23 24 25 24 23 22 23 25 26 27 29 28 25 25 24 25 25 24 25 24 25 26 28 29 30 31 32 33 33 33
19 20 22 24 26 24 25 27 27 27 25 23 23 23 25 27 28 29 31 31 31 29 27 30 28 27 26 26 25 25 26 28 29 29 30 32 34 34
21 22 23 24 23 24 25 25 27 25 24 23 23 23 25 28 30 30 29 30 31 31 32 33 31 31 30 27 25 26 26 27 30 30 33 32 32 30
21 21 23 21 23 23 23 23 23 23 22 22 22 24 25 25 24 26 26 27 27 25 27 31 31 29 27 28 28 26 27 25 28 31 31 29 30 31
20 21 18 18 18 19 19 21 21 22 21 22 22 22 22 23 24 26 26 28 26 26 25 28 31 30 30 28 26 27 26 26 26 28 30 29 30 31
17 17 16 17 17 16 16 18 19 21 20 20 22 21 22 22 23 25 24 25 25 26 27 29 29 28 28 28 30 27 26 26 27 30 30 29 29 30
16 16 15 16 15 15 15 16 16 19 20 18 19 19 21 22 23 22 23 23 23 26 24 22 22 23 24 22 24 27 27 27 27 25 25 26 27 29
13 15 15 16 15 14 14 15 16 17 17 16 16 17 19 21 21 21 22 22 23 24 23 22 20 21 22 22 23 22 25 23 24 24 25 26 27 29
11 12 15 15 14 14 14 14 15 14 14 14 14 15 16 19 19 21 21 21 21 21 21 21 24 24 23 24 23 21 22 24 24 23 23 23 24 26
10 11 13 14 12 13 14 13 12 11 10 11 12 13 15 17 17 19 20 19 20 17 17 18 22 24 21 21 22 21 22 22 24 25 25 25 22 21
10 10 11 12 13 12 14 12 11 8 8 9 10 11 12 15 15 17 18 17 18 17 17 19 22 22 24 21 22 20 19 21 22 22 21 25 26 26

GFSNE_sfc_30mbdewp_033.txt.gz
Dewpoint
33 34 34 33 30 32 32 32 31 26 26 28 28 29 30 31 30 28 33 38 39 38 37 37 42 42 42 41 37 35 33 33 33 34 41 48 48 47
33 31 25 25 24 23 24 25 27 28 25 31 30 29 29 23 23 24 23 25 32 38 36 38 38 39 41 41 40 37 35 32 31 31 33 37 44 46
23 22 21 22 22 22 22 23 23 24 23 23 25 27 23 21 20 22 23 22 22 24 28 32 37 36 37 39 39 39 37 35 34 33 33 33 36 40
22 22 22 22 21 22 21 22 22 23 23 22 24 23 22 21 21 22 23 24 25 26 31 29 31 37 37 36 35 34 36 36 36 34 35 33 34 34
22 23 22 22 20 21 22 23 24 25 25 24 23 22 22 22 22 22 21 22 24 23 25 26 26 29 36 36 34 33 32 36 35 36 35 34 34 33
23 23 23 21 20 21 20 23 24 25 24 24 23 22 21 21 23 20 19 22 21 23 24 24 25 29 29 31 36 38 36 36 35 34 34 33 32 30
23 23 23 22 22 21 19 19 20 21 22 22 22 22 22 20 19 19 19 20 22 23 22 22 25 27 27 28 30 31 34 36 37 36 34 33 31 31
24 24 23 23 22 21 20 20 21 22 22 22 22 21 22 21 21 21 20 21 20 23 24 24 24 24 24 25 26 27 29 30 33 36 35 34 33 32
25 23 22 20 20 21 21 21 22 23 24 25 23 22 23 24 23 22 22 22 21 22 23 22 24 24 25 26 27 27 28 28 29 31 33 34 33 33
21 21 21 20 20 19 22 24 24 22 25 25 25 25 25 25 25 24 23 24 24 25 25 23 23 24 25 25 27 29 29 31 31 31 32 31 31 30
20 20 19 19 21 23 24 22 22 22 23 23 23 22 23 26 28 28 25 24 21 20 24 24 22 22 23 24 25 26 28 29 30 32 32 32 32 31
18 18 19 20 23 25 24 23 21 21 23 22 22 23 24 24 23 23 23 22 21 19 20 21 22 22 20 21 24 25 26 28 29 31 32 33 33 33
18 19 20 22 20 23 24 23 23 24 24 25 25 25 25 25 25 25 25 23 21 21 23 24 23 23 24 21 22 23 24 25 27 28 30 32 33 34
19 20 22 18 20 22 22 23 23 23 22 22 22 22 23 24 26 28 29 29 28 27 27 28 25 24 23 23 22 24 25 24 24 25 25 28 31 33
19 18 17 17 18 20 20 22 22 21 21 20 20 21 23 25 26 27 28 29 29 29 31 30 28 27 27 25 24 24 25 25 27 27 28 28 29 29
16 17 16 17 17 17 17 19 20 20 19 19 19 21 23 23 24 25 25 26 26 25 26 29 29 29 28 28 28 26 27 25 27 28 29 28 28 28
14 14 14 14 14 14 14 15 16 16 16 17 17 18 19 21 22 24 24 24 23 24 25 25 29 29 30 28 26 26 26 25 26 27 27 26 27 27
13 13 12 12 12 13 13 13 14 13 14 15 15 16 16 17 20 22 23 22 23 23 21 21 22 27 28 28 29 26 26 26 26 26 27 26 27 27
9 10 11 11 11 13 12 12 11 10 12 12 13 13 14 16 18 19 20 20 20 21 21 21 21 20 20 19 23 26 23 25 25 26 26 27 26 25
10 9 11 11 11 12 12 11 10 7 7 9 10 10 11 13 15 16 17 17 17 17 17 17 19 20 20 20 21 22 24 20 20 20 21 22 23 25
10 9 10 11 9 10 11 10 9 5 5 6 7 8 9 11 13 14 14 14 15 16 14 15 17 20 22 21 18 19 21 23 23 21 20 20 20 22
9 9 9 10 9 8 9 8 8 5 5 5 6 7 8 9 11 11 12 12 11 12 13 15 18 21 21 21 20 19 20 18 22 24 25 23 20 18
10 10 9 8 8 8 9 7 6 4 5 5 6 7 7 8 10 10 10 10 10 10 11 14 15 18 21 20 20 21 19 20 19 21 21 23 25 25

GFSNE_sfc_30mbdewp_036.txt.gz
Dewpoint
33 33 33 33 26 28 25 28 28 21 20 23 26 29 30 30 28 26 23 28 26 33 38 38 40 41 42 42 42 41 35 34 35 40 48 49 49 50
33 30 24 24 23 24 23 24 25 25 21 22 23 29 30 28 25 25 22 25 23 25 26 32 37 35 36 41 41 40 41 35 32 32 37 46 48 47
23 22 22 23 22 22 23 22 22 23 21 21 23 25 26 26 23 22 23 23 24 26 31 31 32 36 37 37 40 40 38 38 38 33 33 33 39 45
22 22 22 23 22 22 21 20 21 23 23 23 24 25 24 24 22 21 21 21 25 23 27 28 28 30 38 38 37 39 39 36 36 38 35 34 34 37
22 23 22 23 22 20 20 21 22 23 25 25 24 24 23 23 22 23 22 21 22 22 21 24 26 26 31 37 38 37 36 35 36 37 36 36 35 34
23 24 24 23 22 21 21 21 20 22 21 21 21 21 23 23 23 22 20 21 20 21 22 24 24 24 30 31 34 38 36 34 34 35 35 34 34 32
24 25 24 24 24 24 23 22 23 20 20 19 20 20 21 22 21 21 21 20 21 23 22 22 23 26 27 26 27 30 33 37 37 37 35 34 33 30
23 23 23 21 22 20 20 19 19 20 21 21 19 18 20 21 21 21 21 20 19 23 23 23 25 23 24 25 26 26 28 29 32 36 37 36 33 31
20 19 18 17 19 20 20 20 21 22 24 25 22 23 22 22 24 23 22 21 21 22 23 22 24 24 25 25 27 29 29 27 28 30 33 36 34 33
18 19 19 19 19 20 22 23 23 22 22 22 23 24 24 25 25 25 24 23 23 24 25 22 23 23 25 26 27 27 28 30 30 30 31 32 34 34
19 18 19 20 21 24 23 22 22 22 22 23 27 26 26 23 23 26 24 23 21 21 25 24 23 22 23 24 25 26 27 28 30 31 31 31 32 32
19 19 19 19 20 20 24 22 20 21 22 23 24 24 25 25 25 24 23 21 21 20 20 21 20 21 21 22 23 25 26 27 29 30 30 31 32 33
19 19 20 20 19 20 21 22 22 23 22 22 22 23 26 26 26 26 24 22 20 20 22 23 23 23 23 22 22 24 24 25 27 28 30 31 32 32
18 19 20 17 16 17 19 22 21 21 21 21 20 21 22 22 24 26 28 27 26 24 26 27 25 24 24 22 22 24 25 25 26 26 27 28 31 33
17 16 16 15 15 17 16 18 19 19 18 17 18 18 20 23 24 25 26 28 29 30 30 30 28 27 26 24 23 24 24 27 26 26 27 27 28 29
15 15 14 15 14 15 15 15 17 16 15 16 16 18 20 21 22 25 25 26 26 26 28 30 30 29 27 27 26 26 26 24 27 27 28 27 28 29
13 12 11 11 11 13 12 13 14 12 12 14 15 15 16 18 20 23 23 23 23 23 24 25 29 30 30 29 26 26 26 26 26 26 28 27 27 28
9 10 9 9 9 11 11 11 10 8 10 12 13 13 13 15 17 20 21 21 21 22 22 22 22 26 28 27 28 26 26 26 26 27 26 25 26 28
8 8 9 9 9 10 11 10 10 7 8 9 11 10 12 13 16 17 17 18 17 18 18 19 20 20 21 19 22 26 23 23 24 26 26 27 26 26
10 9 8 9 10 9 10 10 9 6 5 6 8 8 8 11 13 14 14 14 15 16 15 17 18 19 20 19 21 23 24 21 21 20 21 22 22 24
10 10 8 9 10 8 8 7 6 5 3 4 6 7 7 8 10 11 12 11 11 12 12 13 15 18 20 21 19 19 22 23 22 21 21 20 20 22
11 10 10 9 9 8 7 7 6 4 3 3 5 6 7 7 9 9 10 10 10 11 11 13 17 20 21 21 20 19 21 20 21 24 23 22 21 19
13 11 9 8 7 7 7 7 6 4 2 3 4 6 7 7 7 8 8 9 9 9 10 12 13 16 19 19 19 19 20 20 19 21 22 23 24 23